www.pogodaiklimat.ru

Погода и климат >> Архив погоды >> Французская Полинезия >> Atuona


ПОГОДА в Atuona

  • Прогноз погоды в Atuona
  • Монитор погоды в Atuona
  • Климат города

АРХИВ ПОГОДЫ в Atuona

Время (UTC), дата Ветер
(напр.,м/с)
 
Видим.   Явления Облачность Т
(С)
Тd
(С)
f
(%)
Тe
(С)
Тes
(С)
Комфортность P
(гПа)
Po
(гПа)
Тmin
(С)
Tmax
(С)
R
(мм)
S
(см)
02 21.03 З 2
{10}
40 км 5/5 700 м
[Cu Sc Ci fib]
+28.5 +21.3 65 +36 +37 очень
душно
1010.2 1004.2
01 21.03 В 4
{9}
8000 м осадки на расстоянии 4/4 700 м
[Cu Sc]
+28.7 +23.1 72 +39 +41 очень
душно
1009.8 1003.8
03 21.03 С 1 н/о н/о +27.2 +22.4 75 +36 +36 очень
душно
1010.8 1004.8
04 21.03 СВ 2
{3}
н/о н/о +26.0 +22.7 82 +34 +34 очень
душно
1011.7 1005.7
05 21.03 СВ 2
{3}
н/о н/о +25.6 +22.9 85 +34 +34 очень
душно
1012.3 1006.3
06 21.03 СЗ 1 н/о н/о +25.4 +23.1 87 +34 +34 очень
душно
1012.9 1006.8
08 21.03 СВ 1
{3}
н/о н/о +25.4 +23.1 87 +34 +34 очень
душно
1013.3 1007.2
07 21.03 СВ 1
{3}
н/о н/о +25.3 +23.0 87 +34 +34 очень
душно
1013.3 1007.2
09 21.03 СВ 1 н/о н/о +25.1 +23.2 89 +34 +34 очень
душно
1013.1 1007.0
10 21.03 СВ 1
{3}
н/о н/о +24.8 +22.9 89 +33 +33 очень
душно
1012.6 1006.5
11 21.03 В 1
{3}
н/о н/о +24.6 +22.3 87 +32 +32 очень
душно
1011.9 1005.8
12 21.03 СВ 1 н/о н/о +24.6 +22.7 89 +32 +32 очень
душно
1011.6 1005.5 +32.1 +32.1
14 21.03 С 1
{3}
н/о н/о +24.4 +22.5 89 +32 +32 очень
душно
1011.8 1005.7
13 21.03 СВ 2
{3}
н/о н/о +24.6 +22.7 89 +32 +32 очень
душно
1011.4 1005.3
15 21.03 СВ 1 н/о н/о +24.3 +22.4 89 +32 +32 очень
душно
1012.2 1006.1
16 21.03 СВ 2
{3}
40 км 4/4 700 м
[Cu Sc]
+25.1 +22.6 86 +33 +33 очень
душно
1012.5 1006.4
17 21.03 СВ 2
{4}
40 км 4/4 700 м
[Cu Sc]
+27.9 +23.7 78 +38 +41 очень
душно
1013.4 1007.4
18 21.03 ЮЗ 1 н/о н/о +30.4 +23.3 66 +41 +41 опасность
перегрева
1013.4 1007.4
19 21.03 В 5
{7}
н/о н/о +31.7 +24.6 66 +44 +44 опасность
перегрева
1013.2 1007.3
20 21.03 В 6
{10}
н/о н/о +28.9 +23.6 73 +39 +39 очень
душно
1013.2 1007.2
21 21.03 В 3 н/о 9/5 600 м
[Cu Sc Ci sp]
+30.6 +24.3 69 +43 +50 опасность
перегрева
1012.0 1006.1
22 21.03 В 6
{11}
н/о н/о +29.0 +24.1 75 +40 +40 очень
душно
1011.4 1005.4
23 21.03 В 3
{10}
н/о н/о +28.5 +23.6 75 +39 +39 очень
душно
1010.9 1004.9 0.4
00 22.03 СЗ 1 н/о {ливн. осадки, дождь} н/о +26.7 +24.5 88 +38 +38 очень
душно
1010.7 1004.7 +24.2 6
01 22.03 З 2
{5}
8000 м в посл. час гроза 9/5 450 м
[Cb cap Ac trans Ci sp]
+27.0 +24.8 88 +39 +41 очень
душно
1010.7 1004.7
02 22.03 В 2
{5}
н/о н/о +27.1 +24.9 88 +39 +39 очень
душно
1010.7 1004.7
03 22.03 СВ 1 н/о н/о +26.3 +23.2 83 +35 +35 очень
душно
1010.9 1004.9 0.2
04 22.03 СЗ 1
{4}
н/о н/о +25.3 +23.0 87 +34 +34 очень
душно
1011.7 1005.7
05 22.03 СЗ 2
{4}
н/о н/о +24.8 +23.2 91 +33 +33 очень
душно
1012.5 1006.4
06 22.03 С 1 н/о н/о +25.0 +23.6 92 +34 +34 очень
душно
1013.3 1007.2
07 22.03 СЗ 2
{5}
н/о н/о +24.9 +23.3 91 +33 +33 очень
душно
1013.3 1007.2
08 22.03 СЗ 1
{4}
н/о н/о +25.1 +23.2 89 +34 +34 очень
душно
1013.2 1007.1
09 22.03 СЗ 1 н/о н/о +25.2 +23.6 91 +34 +34 очень
душно
1012.7 1006.6
10 22.03 СВ 2
{4}
н/о н/о +25.0 +23.2 90 +33 +33 очень
душно
1011.6 1005.5
11 22.03 В 3
{5}
н/о н/о +25.4 +24.2 93 +35 +35 очень
душно
1011.9 1005.9 0.2
12 22.03 З 1 н/о н/о +23.4 +22.4 94 +32 +32 очень
душно
1012.3 1006.2 +32.0 +32.0 2
13 22.03 СЗ 2
{6}
н/о н/о +23.2 +22.0 93 +32 +32 очень
душно
1012.7 1006.6 0.2
14 22.03 С 2
{5}
н/о н/о +23.4 +22.2 93 +32 +32 очень
душно
1012.4 1006.3
15 22.03 С 1 н/о осадки на расстоянии 9/9 300 м
[Cb cap]
+23.6 +22.4 93 +31 +31 очень
душно
1012.5 1006.4
17 22.03 СВ 1
{5}
н/о н/о +24.7 +23.1 91 +33 +33 очень
душно
1012.2 1006.1
16 22.03 С 2
{6}
н/о н/о +23.6 +21.9 90 +30 +30 очень
душно
1011.3 1005.2 0.2
18 22.03 З 1 н/о {ливн. осадки, дождь} н/о +27.2 +24.1 83 +38 +38 очень
душно
1014.1 1008.1 0.2
19 22.03 ЮВ 1
{4}
н/о н/о +30.0 +23.7 69 +41 +41 опасность
перегрева
1014.0 1008.0
20 22.03 В 3
{5}
н/о н/о +30.8 +25.4 73 +45 +45 опасность
перегрева
1013.2 1007.3
21 22.03 Ю 2
{9}
15 км осадки на расстоянии 9/6 400 м
[Cb cap Ci sp]
+30.3 +24.9 73 +43 +51 опасность
перегрева
1012.5 1006.6
23 22.03 В 8
{13}
н/о н/о +27.5 +25.1 87 +40 +40 очень
душно
1010.9 1004.9 1
22 22.03 В 5
{9}
6000 м в посл. час ливневой дождь 9/9 450 м
[Cb calv]
+28.6 +24.4 78 +40 +41 очень
душно
1012.0 1006.0 0.2
00 23.03 З 2 8000 м в посл. час ливневой дождь 9/9 450 м
[Cb calv]
+28.2 +26.2 89 +43 +44 опасность
перегрева
1010.3 1004.3 +23.0 2
01 23.03 В 4
{6}
8000 м осадки на расстоянии 9/9 450 м
[Cb calv]
+28.1 +24.7 82 +40 +40 очень
душно
1009.7 1003.7
02 23.03 ЮЗ 1
{5}
8000 м осадки на расстоянии 9/9 450 м
[Cb calv]
+28.8 +25.4 82 +42 +43 опасность
перегрева
1010.0 1004.0
03 23.03 ЮВ 1
{4}
н/о н/о +27.7 +24.7 84 +39 +39 очень
душно
1010.7 1004.7
05 23.03 СВ 1
{5}
н/о н/о +26.7 +24.5 88 +38 +38 очень
душно
1012.5 1006.5 0.2
04 23.03 В 2
{7}
н/о н/о +27.1 +24.7 87 +39 +39 очень
душно
1011.8 1005.8
06 23.03 В 2
{4}
н/о н/о +26.2 +24.6 91 +37 +37 очень
душно
1013.3 1007.3 1
07 23.03 СЗ 2
{9}
н/о н/о +25.3 +24.4 95 +35 +35 очень
душно
1013.2 1007.1 21
08 23.03 СВ 2
{5}
н/о н/о +25.3 +24.3 94 +35 +35 очень
душно
1013.1 1007.0
09 23.03 С 1
{4}
н/о н/о +25.1 +24.1 94 +35 +35 очень
душно
1013.3 1007.2 21
11 23.03 С 1
{4}
н/о н/о +24.3 +22.9 92 +32 +32 очень
душно
1011.4 1005.3
10 23.03 СВ 1
{3}
н/о н/о +24.6 +23.7 95 +33 +33 очень
душно
1012.4 1006.3
12 23.03 С 2
{5}
н/о н/о +24.3 +23.1 93 +32 +32 очень
душно
1010.9 1004.8 +32.3
13 23.03 СЗ 2
{3}
н/о н/о +24.4 +23.0 92 +32 +32 очень
душно
1010.7 1004.6
14 23.03 С 1
{3}
н/о н/о +24.5 +23.3 93 +33 +33 очень
душно
1011.4 1005.3
15 23.03 штиль 0
{3}
30 км 8/8 540 м
[Cu med, cong]
+24.7 +23.3 92 +33 +33 очень
душно
1011.5 1005.4
16 23.03 СЗ 2
{3}
30 км в посл. час ливневой дождь 9/9 540 м
[Cu med, cong]
+25.1 +23.7 92 +34 +34 очень
душно
1011.8 1005.8
17 23.03 В 3
{6}
н/о н/о +25.8 +24.8 94 +37 +37 очень
душно
1012.7 1006.7 4
18 23.03 В 2
{7}
30 км в посл. час ливневой дождь 9/6 540 м
[Cu med, cong Ci]
+27.3 +25.1 88 +39 +43 очень
душно
1013.3 1007.3 6
19 23.03 СЗ 2
{5}
13 км в посл. час ливневой дождь 10/10 450 м
[Cu med, cong]
+27.9 +25.9 89 +42 +42 опасность
перегрева
1013.2 1007.2 0.8
20 23.03 З 1
{9}
5000 м гроза, ливневой дождь 10/10 400 м
[Cb cap]
+25.9 +24.7 93 +37 +37 очень
душно
1013.4 1007.4 13
21 23.03 С 1
{6}
30 км гроза без осадков {ливн. осадки} 10/5 400 м
[Cb cap As op]
+27.5 +25.5 89 +40 +43 очень
душно
1012.4 1006.4 15
22 23.03 СВ 2
{5}
20 км слабый ливневой дождь, в посл. час гроза 10/6 400 м
[Cb cap As op]
+28.1 +25.3 85 +41 +43 опасность
перегрева
1011.5 1005.5 0.0
23 23.03 СЗ 4
{8}
10 км слабый дождь 10/8 400 м
[Cb cap As op]
+25.2 +23.1 88 +34 +34 очень
душно
1011.2 1005.2 3
00 24.03 СВ 1 20 км в посл. час дождь {гроза, ливн. осадки} 10/10 480 м
[Cu Sc]
+25.3 +22.8 86 +33 +33 очень
душно
1011.1 1005.1 +24.1 3
01 24.03 С 2
{5}
15 км слабый дождь 10/8 450 м
[Cb cap As op]
+25.0 +23.6 92 +34 +34 очень
душно
1010.4 1004.4 2
02 24.03 СЗ 2
{4}
15 км в посл. час дождь 10/10 480 м
[Cu Sc]
+25.0 +24.0 94 +34 +34 очень
душно
1011.1 1005.1 0.0
03 24.03 СЗ 3
{6}
н/о н/о +24.9 +24.0 95 +34 +34 очень
душно
1011.7 1005.6 8
04 24.03 СВ 2
{6}
н/о н/о +24.8 +23.9 95 +34 +34 очень
душно
1012.9 1006.8 3
05 24.03 С 2
{8}
н/о н/о +23.8 +22.4 92 +31 +31 очень
душно
1013.4 1007.3 2
06 24.03 З 5
{8}
н/о н/о +23.5 +22.3 93 +31 +31 очень
душно
1014.1 1008.0 7
07 24.03 СЗ 3
{9}
н/о н/о +23.3 +21.4 89 +31 +31 очень
душно
1014.2 1008.1 0.0
08 24.03 СЗ 3
{7}
н/о н/о +23.4 +22.2 93 +32 +32 очень
душно
1013.9 1007.8 0.0
09 24.03 СЗ 3
{5}
н/о н/о +23.9 +23.0 95 +32 +32 очень
душно
1013.0 1006.9 0.0
10 24.03 СЗ 2
{5}
н/о н/о +24.8 +23.0 90 +33 +33 очень
душно
1012.2 1006.1
11 24.03 В 2
{6}
н/о н/о +25.1 +24.1 94 +35 +35 очень
душно
1011.8 1005.8 1
12 24.03 С 1
{4}
н/о н/о +24.4 +23.2 93 +33 +33 очень
душно
1011.8 1005.7 +28.7 1
14 24.03 СВ 2
{4}
н/о н/о +23.0 +21.6 92 +31 +31 очень
душно
1011.6 1005.5
13 24.03 СЗ 2
{5}
н/о н/о +23.5 +22.5 94 +31 +31 очень
душно
1011.4 1005.3
15 24.03 С 1
{3}
20 км 6/1 540 м
[Cu Sc Ci]
+23.2 +21.8 92 +31 +31 очень
душно
1012.2 1006.1
16 24.03 СЗ 1
{3}
20 км 6/1 540 м
[Cu Sc Ci]
+23.8 +22.6 93 +31 +32 очень
душно
1012.6 1006.5
17 24.03 СВ 1
{2}
20 км 8/1 600 м
[Cu med, cong Ac trans Ci]
+26.6 +24.1 86 +37 +39 очень
душно
1012.8 1006.8
18 24.03 СВ 1
{2}
30 км 4/1 630 м
[Cu med, cong Ci fib]
+30.1 +25.4 76 +44 +53 опасность
перегрева
1013.4 1007.4
20 24.03 В 6
{10}
30 км 4/1 750 м
[Cu med, cong Ac trans Ci fib]
+30.5 +25.6 75 +45 +51 опасность
перегрева
1012.6 1006.7
19 24.03 В 2
{4}
30 км 4/1 700 м
[Cu med, cong Ac trans Ci fib]
+29.8 +23.5 69 +40 +51 опасность
солнечного
удара
1013.3 1007.3
21 24.03 В 5
{9}
30 км 5/1 750 м
[Cu med, cong Ac trans Ci fib]
+31.3 +25.4 71 +46 +53 опасность
перегрева
1011.7 1005.8
22 24.03 В 4
{7}
30 км 8/1 750 м
[Cu hum Ac trans Ci fib]
+31.2 +26.0 74 +47 +55 опасность
перегрева
1011.1 1005.2
23 24.03 В 4
{6}
30 км 4/1 750 м
[Cu hum Ac trans]
+31.4 +25.0 69 +45 +53 опасность
перегрева
1010.4 1004.5
00 25.03 В 5
{9}
30 км 4/4 750 м
[Cu med, cong Ac trans]
+30.0 +24.4 72 +42 +46 опасность
перегрева
1009.7 1003.8 +23.0
02 25.03 В 4
{9}
30 км 4/4 700 м
[Cu Sc]
+28.6 +24.0 76 +40 +40 очень
душно
1010.0 1004.0
01 25.03 В 5
{10}
30 км 4/4 700 м
[Cu Sc]
+29.5 +24.1 73 +41 +43 опасность
перегрева
1009.6 1003.7
03 25.03 В 3
{8}
н/о н/о +28.1 +23.2 75 +38 +38 очень
душно
1010.9 1004.9
04 25.03 СЗ 1
{5}
н/о н/о +27.5 +24.1 82 +38 +38 очень
душно
1012.1 1006.1
05 25.03 СЗ 2
{3}
н/о н/о +26.5 +23.8 85 +36 +36 очень
душно
1012.8 1006.8
06 25.03 С 1
{3}
н/о н/о +26.0 +24.0 89 +36 +36 очень
душно
1013.6 1007.6
08 25.03 СВ 1
{3}
н/о н/о +25.6 +23.8 90 +35 +35 очень
душно
1014.2 1008.1
07 25.03 СВ 2
{3}
н/о н/о +25.8 +23.8 89 +35 +35 очень
душно
1014.0 1008.0
09 25.03 СВ 1
{3}
н/о н/о +25.6 +23.6 89 +35 +35 очень
душно
1013.9 1007.8
10 25.03 С 1
{4}
н/о н/о +25.4 +23.6 90 +35 +35 очень
душно
1013.2 1007.1
11 25.03 штиль 0
{2}
н/о н/о +25.3 +23.7 91 +34 +34 очень
душно
1011.9 1005.9
12 25.03 ЮЗ 2
{5}
н/о н/о +25.5 +24.1 92 +35 +35 очень
душно
1011.9 1005.9 +31.7
14 25.03 СЗ 1
{7}
н/о н/о +23.6 +21.9 90 +30 +30 очень
душно
1012.4 1006.3
13 25.03 С 3
{15}
н/о н/о +23.3 +20.8 86 +31 +31 очень
душно
1012.5 1006.4 3
15 25.03 СЗ 2
{4}
30 км 8/8 630 м
[Cu Sc]
+23.8 +22.6 93 +31 +31 очень
душно
1012.3 1006.2 3
16 25.03 СЗ 1
{5}
30 км 9/4 630 м
[Cu Sc Ac lent Ci fib]
+24.2 +23.0 93 +32 +32 очень
душно
1013.2 1007.1
17 25.03 СВ 2
{3}
н/о н/о +27.6 +24.8 85 +39 +39 очень
душно
1013.6 1007.6
18 25.03 ЮВ 2
{3}
40 км {ливн. осадки, дождь} 6/4 630 м
[Cu Sc Ac lent Ci fib]
+30.8 +25.9 75 +46 +51 опасность
перегрева
1013.8 1007.9
19 25.03 ЮВ 2
{3}
40 км 6/3 630 м
[Cu Sc Ac lent Ci fib]
+31.2 +25.5 72 +46 +54 опасность
перегрева
1013.7 1007.8
20 25.03 Ю 2
{4}
н/о н/о +30.4 +24.1 69 +42 +42 опасность
перегрева
1012.9 1007.0
21 25.03 Ю 2
{4}
40 км 6/4 450 м
[Cb calv Ci fib]
+30.9 +25.0 71 +44 +57 опасность
перегрева
1012.2 1006.3
22 25.03 В 4
{6}
40 км 6/4 450 м
[Cb calv Ci fib]
+32.2 +25.5 68 +47 +55 опасность
перегрева
1011.1 1005.2
23 25.03 В 5
{8}
40 км 6/4 450 м
[Cb calv Ci fib]
+31.5 +25.4 70 +46 +51 опасность
перегрева
1010.0 1004.1
00 26.03 ЮВ 2
{9}
40 км 6/4 450 м
[Cb calv Ci fib]
+30.3 +24.0 69 +42 +48 опасность
перегрева
1009.2 1003.3 +23.2
01 26.03 В 3
{6}
40 км 8/4 600 м
[Cu Sc Ci fib]
+29.8 +24.0 71 +41 +44 опасность
перегрева
1009.2 1003.3
02 26.03 ЮВ 4
{7}
40 км 8/4 600 м
[Cu Sc Ci fib]
+29.7 +24.6 74 +42 +43 опасность
перегрева
1009.4 1003.5
03 26.03 З 1
{5}
н/о н/о +28.5 +24.1 77 +40 +40 очень
душно
1010.2 1004.2
04 26.03 штиль 0
{5}
н/о н/о +27.4 +24.5 84 +39 +39 очень
душно
1010.9 1004.9
05 26.03 С 1
{3}
н/о н/о +26.3 +24.2 88 +37 +37 очень
душно
1011.8 1005.8
06 26.03 СЗ 1
{2}
н/о н/о +25.8 +24.0 90 +36 +36 очень
душно
1012.5 1006.5
07 26.03 С 1
{3}
н/о н/о +25.5 +23.7 90 +35 +35 очень
душно
1013.1 1007.1
08 26.03 Ю 2
{4}
н/о н/о +25.9 +24.1 90 +36 +36 очень
душно
1013.2 1007.2
09 26.03 С 2
{5}
н/о н/о +25.6 +24.2 92 +35 +35 очень
душно
1012.7 1006.7
10 26.03 штиль 0
{4}
н/о н/о +25.5 +24.3 93 +35 +35 очень
душно
1011.8 1005.8
11 26.03 С 1
{3}
н/о н/о +25.2 +24.2 94 +35 +35 очень
душно
1011.0 1005.0
12 26.03 С 2
{6}
н/о н/о +25.0 +24.0 94 +34 +34 очень
душно
1010.8 1004.8 +32.2 5
13 26.03 С 2
{5}
н/о н/о +24.8 +23.9 95 +34 +34 очень
душно
1010.8 1004.8 5
14 26.03 СЗ 1
{5}
н/о н/о +24.8 +24.1 96 +34 +34 очень
душно
1011.5 1005.4 0.6
15 26.03 СЗ 2
{5}
8000 м осадки на расстоянии 9/9 600 м
[Cu Sc]
+24.8 +24.1 96 +34 +34 очень
душно
1011.9 1005.8 6
17 26.03 СЗ 2
{6}
5000 м гроза без осадков 9/9 400 м
[Cb cap]
+25.0 +24.1 95 +34 +35 очень
душно
1013.8 1007.7 0.2
16 26.03 СЗ 3
{5}
н/о н/о +24.7 +23.8 95 +34 +34 очень
душно
1012.8 1006.7 2
18 26.03 СЗ 3
{11}
8000 м в посл. час гроза 9/9 400 м
[Cb cap]
+24.8 +23.9 95 +34 +35 очень
душно
1014.3 1008.2 6
20 26.03 В 2
{5}
н/о н/о +27.2 +23.7 81 +37 +37 очень
душно
1013.5 1007.5 1
21 26.03 З 2
{6}
6000 м осадки на расстоянии 9/9 400 м
[Cb calv]
+29.5 +25.5 79 +43 +45 опасность
перегрева
1012.3 1006.3 1
22 26.03 Ю 2
{4}
н/о н/о +30.1 +24.5 72 +42 +42 опасность
перегрева
1011.2 1005.3
23 26.03 З 3
{4}
н/о н/о +29.6 +24.7 75 +42 +42 опасность
перегрева
1010.1 1004.2
00 27.03 В 2 30 км {ливн. осадки, дождь} 9/5 600 м
[Cu Sc Ci sp]
+28.7 +23.6 74 +39 +44 очень
душно
1009.8 1003.8 +24.6
01 27.03 В 3
{7}
30 км 8/4 600 м
[Cu Sc Ci sp]
+28.7 +24.0 76 +40 +43 очень
душно
1009.4 1003.4
02 27.03 В 2
{6}
н/о н/о +28.5 +23.9 76 +39 +39 очень
душно
1009.6 1003.6
03 27.03 СЗ 3
{6}
н/о н/о +27.4 +24.1 82 +38 +38 очень
душно
1010.1 1004.1
04 27.03 С 2
{4}
н/о н/о +26.3 +24.3 89 +37 +37 очень
душно
1011.0 1005.0 2
05 27.03 С 1
{4}
н/о н/о +25.9 +24.5 92 +36 +36 очень
душно
1011.6 1005.6
06 27.03 СЗ 2
{5}
н/о н/о +25.7 +24.5 93 +36 +36 очень
душно
1012.1 1006.1 2
07 27.03 С 1
{4}
н/о н/о +25.4 +24.2 93 +35 +35 очень
душно
1012.7 1006.7
08 27.03 СЗ 1
{4}
н/о н/о +25.5 +24.3 93 +35 +35 очень
душно
1012.6 1006.6
09 27.03 С 1
{4}
н/о н/о +25.9 +24.7 93 +37 +37 очень
душно
1012.2 1006.2 0.4
10 27.03 В 2
{4}
н/о н/о +26.2 +24.1 88 +36 +36 очень
душно
1011.5 1005.5
11 27.03 С 1
{4}
н/о н/о +26.0 +23.9 88 +36 +36 очень
душно
1010.8 1004.8
12 27.03 СВ 1
{3}
н/о н/о +25.6 +24.0 91 +35 +35 очень
душно
1010.6 1004.6 +30.5
13 27.03 СЗ 2
{5}
н/о н/о +25.4 +23.8 91 +35 +35 очень
душно
1010.4 1004.4
14 27.03 СЗ 1
{4}
н/о н/о +25.1 +23.5 91 +34 +34 очень
душно
1010.4 1004.4
15 27.03 СЗ 1
{4}
30 км 5/5 600 м
[Cu med, cong]
+25.1 +23.7 92 +34 +34 очень
душно
1010.8 1004.8
17 27.03 СЗ 1
{3}
30 км слабый ливневой дождь 8/8 630 м
[Cu med, cong]
+27.0 +24.3 85 +38 +39 очень
душно
1012.1 1006.1
16 27.03 СЗ 1
{4}
30 км 5/5 600 м
[Cu med, cong]
+25.6 +24.4 93 +36 +36 очень
душно
1011.4 1005.4
18 27.03 В 1
{9}
30 км в посл. час ливневой дождь 4/4 700 м
[Cu med, cong]
+30.7 +24.4 69 +43 +49 опасность
перегрева
1012.4 1006.5 0.8
19 27.03 В 7
{11}
30 км в посл. час ливневой дождь 4/4 700 м
[Cu med, cong]
+29.1 +24.4 76 +41 +44 опасность
перегрева
1012.5 1006.5 1
20 27.03 В 7
{11}
30 км 3/3 750 м
[Cu med, cong]
+30.1 +24.5 72 +42 +47 опасность
перегрева
1011.5 1005.6
21 27.03 В 6
{11}
30 км {ливн. осадки, дождь} 4/4 700 м
[Cu Sc]
+29.6 +25.1 77 +43 +48 опасность
перегрева
1010.3 1004.4 1
23 27.03 В 5
{11}
30 км 1/1 750 м
[Cu hum]
+30.5 +24.4 70 +43 +50 опасность
перегрева
1008.4 1002.5
22 27.03 В 6
{11}
30 км 1/1 750 м
[Cu hum]
+30.2 +24.4 71 +42 +49 опасность
перегрева
1009.2 1003.3
00 28.03 В 4
{8}
30 км {ливн. осадки, дождь} 1/1 750 м
[Cu hum]
+30.5 +24.4 70 +43 +51 опасность
перегрева
1007.6 1001.7 +25.0
01 28.03 В 3
{6}
30 км 1/1 750 м
[Cu hum]
+30.2 +23.9 69 +42 +46 опасность
перегрева
1007.8 1001.9

 

Местоположение метеостанции Atuona (Французская Полинезия): широта -9.80 долгота -139.00 высота над уровнем моря 53 м.

В архиве по умолчанию представлена погода в Atuona за последнюю неделю. Архивные данные за месяц целиком и за предыдущие месяцы, начиная с января 2011 года, Вы можете получить, выбрав интересующий диапазон дат из раскрывающегося списка и нажав кнопку "Ввод!".

Внимание! Время в таблицах - всемирное. Для получения местного времени необходимо прибавить поправку, которая в Atuona равна -10 ч.

Смотрите также архив погоды в соседних городах и на ближайших метеорологических станциях:

Погода в Takaroa (Французская Полинезия) (834 км)
Погода в Hao (Французская Полинезия) (941 км)
Погода в Hereheretue (Французская Полинезия) (1295 км)
Погода в Tahiti-Faaa (Французская Полинезия) (1433 км)
Погода в Rikitea (Французская Полинезия) (1545 км)
Погода в Bora-Bora Airport (Французская Полинезия) (1560 км)
Погода в Tubuai (Французская Полинезия) (1869 км)
Погода в Pitcairn Island C (Питкерн) (1942 км)
Погода в Rapa (Французская Полинезия) (2057 км)
Погода в Penrhyn (Кука Острова) (2086 км)

Пояснения к столбцам:

Ветер - указаны скорость ветра в м/с - средняя за 10 мин, порывы в срок и между сроками (в фигурных скобках) и направление, откуда дует ветер: С - северный, СВ - северо-восточный, В - восточный, ЮВ - юго-восточный, Ю - южный, ЮЗ - юго-западный, З - западный, СЗ - северо-западный.
Видимость - горизонтальная дальность видимости в метрах или километрах. При видимости от 1 до 10 км при отсутствии осадков обычно наблюдается дымка, при ухудшении видимости до 1 км и менее - туман. В сухую погоду видимость может ухудшаться дымом, пылью или мглою.
Явления - указаны атмосферные явления, наблюдавшиеся в срок или в последний час перед сроком; фигурными скобками обозначены явления, наблюдавшиеся между сроками (за 1-3 часа до срока); квадратными скобками обозначены град или гололедные отложения с указанием их диаметра в мм.
Облачность - указаны через наклонную черту общая и нижняя облачность в баллах и высота нижней границы облаков в метрах; квадратными скобками обозначены формы облаков: Ci - перистые, Cs - перисто-слоистые, Cc - перисто-кучевые, Ac - высококучевые, As - высокослоистые, Sc - слоисто-кучевые, Ns - слоисто-дождевые, Cu - кучевые, Cb - кучево-дождевые. Подробнее классификацию облаков см. в Атласе облаков (PDF).
T - Температура воздуха - температура, измеренная на высоте 2 м над землей.
Td - Температура точки росы - температура, при понижении до которой содержащийся в воздухе водяной пар достигнет насыщения.
f - Относительная влажность воздуха - влажноcть воздуха, измеренная на высоте 2 м над землей.
Te - Эффективная температура - температура, которую ощущает одетый по сезону человек в тени. Характеристика душности погоды. При расчете учитывается влияние влажности воздуха и скорости ветра на теплоощущения человека.
Tes - Эффективная температура на солнце - температура, которую ощущает человек, с поправкой на солнечный нагрев. Характеристика знойности погоды. Зависит от высоты солнца над горизонтом, облачности и скорости ветра. Ночью, в пасмурную погоду, а также при ветре 12 м/с и более поправка равна нулю.
P - Атмосферное давление - приведенное к уровню моря атмосферное давление.
Po - Атмосферное давление - измеренное на уровне метеостанции атмосферное давление.
Tmin - Минимальная температура - минимум температуры воздуха на высоте 2 м над землей.
Tmax - Максимальная температура - максимум температуры воздуха на высоте 2 м над землей.
R - Количество осадков - Количество выпавших осадков, мм. При наведении курсора мыши на число - период времени, за который выпало указанное количество осадков.
S - Снежный покров - Высота снежного покрова, см. При наведении курсора мыши на число - состояние снежного покрова и степень покрытия местности в баллах.